Location: Bouillancy
(49.1149°N, 2.9308°E)
Time: 08:12:17
(UTC+00:00)

Meteor 1-22 Rocket - Pass Details

Date: 30 September 2020
Orbit: 786 x 941 km, 81.2° (Epoch: 29 October)

Event Time Altitude Azimuth Distance (km) Brightness Sun altitude
Rises 18:59:07 0° 186° (S) 3,531 7.4 -15.6°
Reaches altitude 10° 19:01:33 10° 185° (S) 2,610 6.7 -16.0°
Maximum altitude 19:07:33 81° 100° (E) 953 4.3 -16.9°
Drops below altitude 10° 19:13:42 10° 14° (NNE) 2,670 6.8 -17.9°
Sets 19:16:12 0° 13° (NNE) 3,618 7.5 -18.3°
